Velovelo
Português Nederlands 日本語 中文
Español English čeština slovenčina
русский italiano polski norsk
français Deutsch svenska عربي
 
 vorige pagina
 Stuur naar een vriend
 Print dit artikel
 ---> Le Raid du Bugey 2009 : Résultats du 140 km

Nous nous excusons de ce petit retard à la publication de ces résultats, il est dû à la préparation (déplacement pour visas) de notre reportage en Chine durant ce mois d’Octobre ...

Class NomPrénom ... Cat. Cl.cat.Temps....
1 PINEAU CÉDRIC élite 1 04:16:51.5
2 D’OLIVEIRA FELISMINO E 1 04:21:37.0
3 JOUVE DAVID D 1 04:21:37.1
4 FINE NICOLAS D 2 04:21:37.7
5 MAILFAIT SÉBASTIEN D 3 04:21:38.1
6 JANDARD NICOLAS D 4 04:21:39.0
7 FOULON HAROLD C 1 04:21:40.0
8 COURTHALIAC DENIS D 5 04:22:00.0
9 NUSS ALEXANDRE D 6 04:22:51.3
10 CURT THIERRY D 7 04:23:48.7
11 BORDAZ JEAN-CLAUDE D 8 04:28:33.0
12 TERRIER PHILIPPE E 2 04:32:16.9
13 CIESLAK FRÉDÉRIC D 9 04:32:17.0
14 STOTZ PASCAL D 10 04:32:17.5
15 CAPELLE LUC E 3 04:32:17.8
16 LANDOT DAVID D 11 04:32:18.0
17 VINCENT HERVÉ E 4 04:32:18.5
18 CLEYET MAREL ERNEST F 1 04:32:18.7
19 PATTINIER MANUEL E 5 04:32:19.5
20 CHAMPALLE PASCAL E 6 04:32:19.6
21 CARRIER GÉRALD D 12 04:32:19.8
22 SAINT GERMAIN OLIVIER E 7 04:33:29.1
23 JOIRON ÉRIC F 2 04:41:02.3
24 VIGIER LAURENT E 8 04:43:17.6
25 RICHARD STANISLAS E 9 04:43:32.5
26 RICO HUGUES D 13 04:44:52.7
27 CASIMIR IGOR D 14 04:44:53.1
28 SAULNIER JEAN-CHRISTOPHE E 10 04:46:46.7
29 LEULLIETTE STÉPHANE D 15 04:48:50.3
30 BALTHAZARD JEAN G 1 04:48:52.0
31 LE BORGNE HERVÉ E 11 04:48:56.7
32 TOURNIER JEAN-CLAUDE E 12 04:49:54.9
33 ALLONGUE BRUNO E 13 04:52:19.7
34 LACHAVANNE JEAN-MARC E 14 04:52:20.1
35 HERCKEL DOMINIQUE F 3 04:52:38.6
36 DORGET LAURENT D 16 04:53:06.0
37 FAVIER MARTIAL E 15 04:54:29.8
38 ROYER NICOLAS C 2 04:55:26.2
39 COMBE PHILIPPE D 17 04:55:26.5
40 AMARI AÏSSA E 16 04:58:38.2
41 CHOQUEL THIERRY E 17 04:58:48.0
42 MOUNIER CATHERINE B 1 04:58:49.2
43 MARGUIN JEAN-MICHEL E 18 04:58:50.4
44 MOURIN FRÉDÉRIC D 18 04:59:15.2
45 DESFARGES PATRICK F 4 04:59:16.4
46 PAGET HERVÉ E 19 05:00:02.0
47 REINAUDO CHRISTIAN F 5 05:00:22.2
48 DECHENAUX BERNARD F 6 05:00:47.8
49 GUILMEAU ALAIN G 2 05:00:51.9
50 POTILLON JACKY E 20 05:01:50.4
51 DUTERLAY GUY F 7 05:08:23.5
52 CHANTOISEAU PHILIPPE F 8 05:12:37.1
53 SALVI MAURICE G 3 05:12:59.1
54 SEVE MAX F 9 05:14:50.1
55 PUNTOS JEAN-JACQUES F 10 05:17:20.9
56 TOUSSAINT FABRICE E 21 05:17:30.2
57 SCHWARTZENTRUBER ARNAUD D 19 05:17:57.5
58 ESCOBAR FRANÇOIS E 22 05:24:02.7
59 LAVENANT CHRISTOPHE E 23 05:24:07.4
60 DERRE JEAN-CLAUDE F 11 05:28:28.7
61 MILLET THIERRY E 24 05:41:47.9
62 RICO LAURE A 1 05:43:22.6
63 LAVIGNE BRUNO F 12 05:48:58.2
64 BASCOP PASCAL E 25 05:52:39.9
65 DESAGE MICHEL F 13 05:54:29.0
66 LAVAL CHRISTOPHE D 20 06:03:51.8
67 DUVINAGE JEAN G 4 06:12:01.5
68 DEWAELE RENAUD D 21 06:14:23.2
69 CRETIN FABRICE E 26 06:14:24.4
70 LEGER JEAN-LUC E 27 06:14:25.5

Haut 









Haut  
 Privé-site   Auteursrecht-Copyright : klik hier om te lezen !